TimeAKDT,TemperatureF,Dew PointF,Humidity,Sea Level PressureIn,VisibilityMPH,Wind Direction,Wind SpeedMPH,Gust SpeedMPH,PrecipitationIn,Events,Conditions,WindDirDegrees,DateUTC
12:53 AM,46.9,46.0,97,30.18,10.0,WSW,4.6,-,N/A,,Overcast,250,2013-07-23 08:53:00
1:53 AM,46.9,46.0,97,30.17,10.0,West,6.9,-,N/A,,Overcast,280,2013-07-23 09:53:00
2:51 AM,46.4,46.4,100,30.18,1.8,WSW,6.9,-,N/A,,Overcast,240,2013-07-23 10:51:00
2:53 AM,46.9,46.0,97,30.18,1.5,SW,5.8,-,N/A,,Overcast,230,2013-07-23 10:53:00
3:36 AM,46.4,46.4,100,30.17,3.0,West,5.8,-,N/A,,Overcast,270,2013-07-23 11:36:00
3:46 AM,46.4,46.4,100,30.17,1.8,WSW,5.8,-,N/A,,Overcast,250,2013-07-23 11:46:00
3:53 AM,46.0,46.0,100,30.17,1.2,WSW,4.6,-,N/A,,Overcast,240,2013-07-23 11:53:00
4:14 AM,46.4,46.4,100,30.17,3.0,Calm,Calm,-,N/A,,Overcast,0,2013-07-23 12:14:00
4:23 AM,46.4,46.4,100,30.17,2.0,Calm,Calm,-,N/A,,Overcast,0,2013-07-23 12:23:00
4:33 AM,46.4,46.4,100,30.17,1.8,Calm,Calm,-,N/A,,Overcast,0,2013-07-23 12:33:00
4:53 AM,46.0,46.0,100,30.17,2.5,NW,3.5,-,N/A,,Overcast,310,2013-07-23 12:53:00
5:19 AM,46.4,46.4,100,30.17,6.0,NW,3.5,-,N/A,,Overcast,320,2013-07-23 13:19:00
5:50 AM,46.4,46.4,100,30.17,2.5,Calm,Calm,-,N/A,,Overcast,0,2013-07-23 13:50:00
5:53 AM,46.0,46.0,100,30.17,2.5,Calm,Calm,-,N/A,,Overcast,0,2013-07-23 13:53:00
6:28 AM,46.4,46.4,100,30.17,1.5,Calm,Calm,-,N/A,,Overcast,0,2013-07-23 14:28:00
6:53 AM,46.0,45.0,96,30.17,0.8,NW,3.5,-,N/A,,Mist,320,2013-07-23 14:53:00
7:05 AM,46.4,46.4,100,30.17,0.5,Calm,Calm,-,N/A,Fog,Fog,0,2013-07-23 15:05:00
7:53 AM,46.0,46.0,100,30.17,0.2,NW,3.5,-,N/A,Fog,Fog,310,2013-07-23 15:53:00
8:23 AM,46.4,46.4,100,30.17,1.0,Calm,Calm,-,N/A,,Mist,0,2013-07-23 16:23:00
8:31 AM,46.4,46.4,100,30.17,0.8,Calm,Calm,-,N/A,,Overcast,0,2013-07-23 16:31:00
8:53 AM,46.0,46.0,100,30.17,0.8,Calm,Calm,-,N/A,,Overcast,0,2013-07-23 16:53:00
9:01 AM,46.4,46.4,100,30.17,1.2,WNW,3.5,-,N/A,,Overcast,290,2013-07-23 17:01:00
9:25 AM,46.4,46.4,100,30.17,2.5,WSW,3.5,-,N/A,,Overcast,250,2013-07-23 17:25:00
9:53 AM,46.9,46.0,97,30.18,3.0,SW,3.5,-,N/A,,Overcast,230,2013-07-23 17:53:00
10:38 AM,46.4,46.4,100,30.18,3.0,SW,4.6,-,N/A,,Overcast,230,2013-07-23 18:38:00
10:53 AM,46.9,46.0,97,30.18,5.0,SW,4.6,-,N/A,,Overcast,220,2013-07-23 18:53:00
11:53 AM,46.9,46.0,97,30.18,5.0,SW,5.8,-,N/A,,Overcast,220,2013-07-23 19:53:00
12:53 PM,46.9,46.0,97,30.19,8.0,SW,4.6,-,N/A,,Overcast,230,2013-07-23 20:53:00
1:53 PM,48.0,46.0,93,30.19,10.0,SW,5.8,-,N/A,,Overcast,220,2013-07-23 21:53:00
2:53 PM,48.9,46.0,90,30.19,10.0,West,4.6,-,N/A,,Overcast,260,2013-07-23 22:53:00
3:44 PM,50.0,46.4,87,30.19,10.0,Variable,6.9,-,N/A,,Overcast,0,2013-07-23 23:44:00
3:53 PM,50.0,46.0,86,30.19,10.0,WSW,8.1,-,N/A,,Overcast,250,2013-07-23 23:53:00
4:53 PM,50.0,46.0,86,30.18,10.0,SW,6.9,-,N/A,,Mostly Cloudy,230,2013-07-24 00:53:00
5:53 PM,50.0,46.9,89,30.18,10.0,WSW,10.4,-,N/A,,Mostly Cloudy,240,2013-07-24 01:53:00
6:53 PM,50.0,46.9,89,30.18,10.0,WSW,12.7,-,N/A,,Overcast,250,2013-07-24 02:53:00
7:53 PM,50.0,46.9,89,30.18,10.0,WSW,11.5,-,N/A,,Overcast,250,2013-07-24 03:53:00
8:53 PM,48.9,46.9,93,30.17,10.0,West,11.5,-,N/A,,Overcast,260,2013-07-24 04:53:00
9:44 PM,48.2,46.4,93,30.17,9.0,West,10.4,-,N/A,,Overcast,260,2013-07-24 05:44:00
9:53 PM,48.9,46.9,93,30.17,9.0,West,11.5,-,N/A,,Overcast,260,2013-07-24 05:53:00
10:13 PM,48.2,46.4,93,30.17,1.8,WSW,8.1,-,N/A,,Overcast,240,2013-07-24 06:13:00
10:51 PM,48.2,46.4,93,30.17,0.5,WSW,10.4,-,N/A,Fog,Fog,250,2013-07-24 06:51:00
10:53 PM,48.0,46.9,96,30.17,0.5,West,10.4,-,N/A,Fog,Fog,260,2013-07-24 06:53:00
11:16 PM,48.2,48.2,100,30.18,0.2,West,8.1,-,N/A,Fog,Fog,260,2013-07-24 07:16:00
11:53 PM,46.9,46.9,100,30.17,0.5,West,9.2,-,N/A,Fog,Fog,270,2013-07-24 07:53:00